Time,TemperatureF,DewpointF,PressureIn,WindDirection,WindDirectionDegrees,WindSpeedMPH,WindSpeedGustMPH,Humidity,HourlyPrecipIn,Conditions,Clouds,dailyrainin,SoftwareType,DateUTC
2013-01-30 00:04:00,32.0,27.0,30.19,ESE,114,3.0,4.0,81,0.00,,,0.01,,2013-01-30 05:04:00,
2013-01-30 00:12:00,33.0,28.0,30.19,SE,140,3.0,7.0,81,0.00,,,0.01,,2013-01-30 05:12:00,
2013-01-30 00:22:00,33.0,28.0,30.19,SE,140,3.0,7.0,81,0.00,,,0.01,,2013-01-30 05:22:00,
2013-01-30 00:32:00,36.0,30.0,30.19,SE,138,6.0,12.0,79,0.00,,,0.01,,2013-01-30 05:32:00,
2013-01-30 00:43:00,36.0,30.0,30.19,SE,138,6.0,12.0,79,0.00,,,0.01,,2013-01-30 05:43:00,
2013-01-30 00:52:00,36.0,30.0,30.19,SSE,154,8.0,12.0,80,0.00,,,0.01,,2013-01-30 05:52:00,
2013-01-30 01:02:00,37.0,31.0,30.18,South,185,7.0,13.0,80,0.00,,,0.01,,2013-01-30 06:02:00,
2013-01-30 01:11:00,37.0,31.0,30.18,South,185,7.0,13.0,80,0.00,,,0.01,,2013-01-30 06:11:00,
2013-01-30 01:21:00,37.0,31.0,30.18,SSE,160,7.0,12.0,80,0.00,,,0.01,,2013-01-30 06:21:00,
2013-01-30 01:32:00,37.0,31.0,30.18,SSE,160,7.0,12.0,80,0.00,,,0.01,,2013-01-30 06:32:00,
2013-01-30 01:42:00,37.0,31.0,30.18,SSE,160,7.0,12.0,80,0.00,,,0.01,,2013-01-30 06:42:00,
2013-01-30 01:52:00,37.0,31.0,30.18,SSE,160,7.0,12.0,80,0.00,,,0.01,,2013-01-30 06:52:00,
2013-01-30 08:53:00,40.0,38.0,29.99,SSE,149,8.0,16.0,94,0.00,,,0.10,,2013-01-30 13:53:00,
2013-01-30 09:03:00,40.0,38.0,29.98,South,188,10.0,21.0,94,0.00,,,0.10,,2013-01-30 14:03:00,
2013-01-30 09:12:00,40.0,38.0,29.98,South,188,10.0,21.0,94,0.00,,,0.10,,2013-01-30 14:12:00,
2013-01-30 09:23:00,41.0,39.0,29.97,SSE,155,8.0,20.0,94,0.00,,,0.10,,2013-01-30 14:23:00,
2013-01-30 09:33:00,41.0,40.0,29.96,South,180,10.0,18.0,95,0.01,,,0.11,,2013-01-30 14:33:00,
2013-01-30 09:42:00,41.0,40.0,29.96,South,180,10.0,18.0,95,0.01,,,0.11,,2013-01-30 14:42:00,
2013-01-30 09:52:00,41.0,40.0,29.96,SSE,161,9.0,17.0,95,0.01,,,0.11,,2013-01-30 14:52:00,
2013-01-30 10:03:00,41.0,40.0,29.95,South,169,9.0,18.0,95,0.01,,,0.11,,2013-01-30 15:03:00,
2013-01-30 10:12:00,41.0,40.0,29.95,South,169,9.0,18.0,95,0.01,,,0.11,,2013-01-30 15:12:00,
2013-01-30 10:23:00,41.0,40.0,29.94,SSE,151,9.0,18.0,95,0.02,,,0.12,,2013-01-30 15:23:00,
2013-01-30 10:33:00,42.0,41.0,29.91,South,173,8.0,19.0,95,0.01,,,0.12,,2013-01-30 15:33:00,
2013-01-30 10:43:00,42.0,41.0,29.91,South,173,8.0,19.0,95,0.01,,,0.12,,2013-01-30 15:43:00,
2013-01-30 10:53:00,42.0,41.0,29.91,South,184,10.0,22.0,95,0.01,,,0.12,,2013-01-30 15:53:00,
2013-01-30 11:03:00,42.0,41.0,29.88,South,177,15.0,29.0,95,0.01,,,0.12,,2013-01-30 16:03:00,
2013-01-30 11:12:00,42.0,41.0,29.88,South,177,15.0,29.0,95,0.01,,,0.12,,2013-01-30 16:12:00,
2013-01-30 11:23:00,42.0,41.0,29.87,South,169,14.0,23.0,95,0.00,,,0.12,,2013-01-30 16:23:00,
2013-01-30 11:32:00,43.0,42.0,29.86,SSW,213,12.0,24.0,95,0.00,,,0.12,,2013-01-30 16:32:00,
2013-01-30 11:42:00,43.0,42.0,29.86,SSW,213,12.0,24.0,95,0.00,,,0.12,,2013-01-30 16:42:00,
2013-01-30 11:52:00,43.0,42.0,29.86,SSW,213,12.0,24.0,95,0.00,,,0.12,,2013-01-30 16:52:00,
2013-01-30 12:02:00,43.0,42.0,29.83,SSE,163,12.0,18.0,95,0.00,,,0.12,,2013-01-30 17:02:00,
2013-01-30 12:13:00,43.0,42.0,29.83,SSE,163,12.0,18.0,95,0.00,,,0.12,,2013-01-30 17:13:00,
2013-01-30 12:23:00,43.0,42.0,29.80,SW,214,15.0,21.0,95,0.00,,,0.12,,2013-01-30 17:23:00,
2013-01-30 12:33:00,43.0,42.0,29.80,SSE,161,11.0,22.0,95,0.00,,,0.12,,2013-01-30 17:33:00,
2013-01-30 12:43:00,43.0,42.0,29.80,SSE,161,11.0,22.0,95,0.00,,,0.12,,2013-01-30 17:43:00,
2013-01-30 12:53:00,43.0,42.0,29.79,SE,146,10.0,20.0,95,0.00,,,0.12,,2013-01-30 17:53:00,
2013-01-30 13:13:00,44.0,43.0,29.77,South,170,10.0,17.0,95,0.00,,,0.12,,2013-01-30 18:13:00,
2013-01-30 13:23:00,44.0,43.0,29.76,South,173,10.0,19.0,95,0.00,,,0.12,,2013-01-30 18:23:00,
2013-01-30 13:33:00,46.0,45.0,29.73,South,174,11.0,18.0,95,0.00,,,0.12,,2013-01-30 18:33:00,
2013-01-30 13:42:00,46.0,45.0,29.73,South,174,11.0,18.0,95,0.00,,,0.12,,2013-01-30 18:42:00,
2013-01-30 13:52:00,47.0,46.0,29.73,SSW,201,13.0,19.0,95,0.00,,,0.12,,2013-01-30 18:52:00,
2013-01-30 14:03:00,48.0,47.0,29.71,SSE,159,14.0,26.0,95,0.00,,,0.12,,2013-01-30 19:03:00,
2013-01-30 14:12:00,48.0,47.0,29.71,SSE,159,14.0,26.0,95,0.00,,,0.12,,2013-01-30 19:12:00,
2013-01-30 14:22:00,48.0,47.0,29.71,SE,135,15.0,25.0,95,0.00,,,0.12,,2013-01-30 19:22:00,
2013-01-30 14:33:00,48.0,47.0,29.70,SW,223,14.0,31.0,95,0.00,,,0.12,,2013-01-30 19:33:00,
2013-01-30 14:43:00,48.0,47.0,29.70,SW,223,14.0,31.0,95,0.00,,,0.12,,2013-01-30 19:43:00,
2013-01-30 14:52:00,48.0,47.0,29.70,WSW,237,11.0,26.0,95,0.00,,,0.12,,2013-01-30 19:52:00,
2013-01-30 15:03:00,47.0,46.0,29.69,South,178,10.0,21.0,95,0.00,,,0.12,,2013-01-30 20:03:00,
2013-01-30 15:12:00,47.0,46.0,29.69,South,178,10.0,21.0,95,0.00,,,0.12,,2013-01-30 20:12:00,
2013-01-30 15:22:00,47.0,46.0,29.69,SW,221,11.0,23.0,95,0.00,,,0.12,,2013-01-30 20:22:00,
2013-01-30 15:33:00,47.0,46.0,29.67,South,184,13.0,20.0,95,0.00,,,0.12,,2013-01-30 20:33:00,
2013-01-30 15:42:00,47.0,46.0,29.67,South,184,13.0,20.0,95,0.00,,,0.12,,2013-01-30 20:42:00,
2013-01-30 15:52:00,48.0,47.0,29.66,SSW,211,11.0,24.0,95,0.00,,,0.12,,2013-01-30 20:52:00,
2013-01-30 16:04:00,48.0,47.0,29.64,SE,130,15.0,30.0,95,0.00,,,0.12,,2013-01-30 21:04:00,
2013-01-30 16:12:00,48.0,47.0,29.64,SE,130,15.0,30.0,95,0.00,,,0.12,,2013-01-30 21:12:00,
2013-01-30 16:23:00,48.0,47.0,29.65,South,181,13.0,25.0,95,0.00,,,0.12,,2013-01-30 21:23:00,
2013-01-30 16:32:00,49.0,48.0,29.63,SSW,203,13.0,26.0,96,0.00,,,0.12,,2013-01-30 21:32:00,
2013-01-30 16:42:00,49.0,48.0,29.63,SSW,203,13.0,26.0,96,0.00,,,0.12,,2013-01-30 21:42:00,
2013-01-30 16:52:00,49.0,48.0,29.62,WSW,242,16.0,28.0,96,0.00,,,0.12,,2013-01-30 21:52:00,
2013-01-30 17:03:00,49.0,48.0,29.61,ESE,120,12.0,28.0,96,0.00,,,0.12,,2013-01-30 22:03:00,
2013-01-30 17:12:00,49.0,48.0,29.61,ESE,120,12.0,28.0,96,0.00,,,0.12,,2013-01-30 22:12:00,
2013-01-30 17:22:00,49.0,48.0,29.61,South,170,18.0,29.0,96,0.00,,,0.12,,2013-01-30 22:22:00,
2013-01-30 17:32:00,50.0,49.0,29.61,West,263,18.0,34.0,96,0.00,,,0.12,,2013-01-30 22:32:00,
2013-01-30 17:42:00,50.0,49.0,29.61,West,263,18.0,34.0,96,0.00,,,0.12,,2013-01-30 22:42:00,
2013-01-30 17:52:00,50.0,49.0,29.61,SW,229,18.0,39.0,96,0.00,,,0.12,,2013-01-30 22:52:00,
2013-01-30 18:02:00,50.0,49.0,29.61,SW,225,17.0,32.0,96,0.00,,,0.12,,2013-01-30 23:02:00,
2013-01-30 18:12:00,50.0,49.0,29.61,SW,225,17.0,32.0,96,0.00,,,0.12,,2013-01-30 23:12:00,
2013-01-30 18:22:00,50.0,49.0,29.60,SSE,147,13.0,32.0,96,0.00,,,0.12,,2013-01-30 23:22:00,
2013-01-30 18:33:00,49.0,48.0,29.61,South,171,15.0,27.0,96,0.00,,,0.12,,2013-01-30 23:33:00,
2013-01-30 18:42:00,49.0,48.0,29.61,South,171,15.0,27.0,96,0.00,,,0.12,,2013-01-30 23:42:00,
2013-01-30 18:52:00,49.0,48.0,29.60,South,181,15.0,29.0,96,0.00,,,0.12,,2013-01-30 23:52:00,
2013-01-30 19:02:00,49.0,48.0,29.59,WNW,284,14.0,28.0,96,0.01,,,0.13,,2013-01-31 00:02:00,
2013-01-30 19:11:00,49.0,48.0,29.59,WNW,284,14.0,28.0,96,0.01,,,0.13,,2013-01-31 00:11:00,
2013-01-30 19:22:00,49.0,48.0,29.59,SW,226,13.0,28.0,96,0.01,,,0.13,,2013-01-31 00:22:00,
2013-01-30 19:32:00,49.0,48.0,29.59,SSW,196,13.0,29.0,96,0.01,,,0.13,,2013-01-31 00:32:00,
2013-01-30 19:42:00,49.0,48.0,29.59,SSW,196,13.0,29.0,96,0.01,,,0.13,,2013-01-31 00:42:00,
2013-01-30 19:53:00,49.0,48.0,29.59,West,269,14.0,23.0,96,0.02,,,0.14,,2013-01-31 00:53:00,
2013-01-30 20:02:00,49.0,48.0,29.59,South,175,12.0,27.0,96,0.01,,,0.14,,2013-01-31 01:02:00,
2013-01-30 20:12:00,49.0,48.0,29.59,South,175,12.0,27.0,96,0.01,,,0.14,,2013-01-31 01:12:00,
2013-01-30 20:22:00,49.0,48.0,29.59,SSW,198,12.0,26.0,96,0.01,,,0.14,,2013-01-31 01:22:00,
2013-01-30 20:32:00,49.0,48.0,29.57,South,173,14.0,29.0,96,0.02,,,0.15,,2013-01-31 01:32:00,
2013-01-30 20:42:00,49.0,48.0,29.57,South,173,14.0,29.0,96,0.02,,,0.15,,2013-01-31 01:42:00,
2013-01-30 20:52:00,49.0,48.0,29.57,SW,228,11.0,24.0,96,0.02,,,0.16,,2013-01-31 01:52:00,
2013-01-30 21:01:00,49.0,48.0,29.56,South,186,13.0,26.0,96,0.07,,,0.21,,2013-01-31 02:01:00,
2013-01-30 21:12:00,49.0,48.0,29.56,South,186,13.0,26.0,96,0.07,,,0.21,,2013-01-31 02:12:00,
2013-01-30 21:22:00,49.0,48.0,29.56,SW,218,16.0,28.0,96,0.07,,,0.21,,2013-01-31 02:22:00,
2013-01-30 21:32:00,49.0,48.0,29.54,South,184,12.0,29.0,96,0.07,,,0.22,,2013-01-31 02:32:00,
2013-01-30 21:42:00,49.0,48.0,29.54,South,184,12.0,29.0,96,0.07,,,0.22,,2013-01-31 02:42:00,
2013-01-30 21:52:00,49.0,48.0,29.54,South,184,12.0,29.0,96,0.07,,,0.22,,2013-01-31 02:52:00,
2013-01-30 22:03:00,50.0,49.0,29.52,SW,215,13.0,30.0,96,0.03,,,0.23,,2013-01-31 03:03:00,
2013-01-30 22:11:00,50.0,49.0,29.52,SW,215,13.0,30.0,96,0.03,,,0.23,,2013-01-31 03:11:00,
2013-01-30 22:21:00,50.0,49.0,29.52,WSW,241,11.0,42.0,96,0.03,,,0.23,,2013-01-31 03:21:00,
2013-01-30 22:32:00,50.0,49.0,29.52,SW,225,13.0,24.0,96,0.00,,,0.23,,2013-01-31 03:32:00,
2013-01-30 22:42:00,50.0,49.0,29.52,SW,225,13.0,24.0,96,0.00,,,0.23,,2013-01-31 03:42:00,
2013-01-30 22:51:00,50.0,49.0,29.51,South,184,11.0,21.0,96,0.00,,,0.23,,2013-01-31 03:51:00,
2013-01-30 23:02:00,50.0,49.0,29.51,SSW,213,11.0,25.0,96,0.00,,,0.23,,2013-01-31 04:02:00,
2013-01-30 23:11:00,50.0,49.0,29.51,SSW,213,11.0,25.0,96,0.00,,,0.23,,2013-01-31 04:11:00,
2013-01-30 23:22:00,50.0,49.0,29.50,SSW,207,11.0,23.0,96,0.00,,,0.23,,2013-01-31 04:22:00,
2013-01-30 23:32:00,50.0,49.0,29.50,SSW,210,16.0,30.0,96,0.00,,,0.23,,2013-01-31 04:32:00,
2013-01-30 23:42:00,50.0,49.0,29.50,SSW,210,16.0,30.0,96,0.00,,,0.23,,2013-01-31 04:42:00,
2013-01-30 23:51:00,50.0,49.0,29.49,SSE,152,14.0,28.0,96,0.00,,,0.23,,2013-01-31 04:51:00,